Location: ?
(35.4554°N, 139.3092°E)
Time: 22:02:25
(UTC+00:00)

CZ-2C R/B - Pass Details

Date: 21 April 2021
Orbit: 668 x 784 km, 98.2° (Epoch: 10 May)

Event Time Altitude Azimuth Distance (km) Brightness Sun altitude
Rises 17:45:18 0° 24° (NNE) 3,112 6.6 -25.6°
Reaches altitude 10° 17:47:46 10° 35° (NE) 2,208 5.8 -25.2°
Maximum altitude 17:52:05 32° 98° (E) 1,258 4.0 -24.5°
Enters shadow 17:55:51 13° 156° (SSE) 2,043 4.6 -23.9°
